Printer-friendly version

IAU Minor Planet Center

Minor Planet Center

(270) Anahita

Orbital Elements

The following orbital elements are taken from MPO 35428
  (270) Anahita
Epoch 2003 Dec. 27.0 TT = JDT 2453000.5                 Goffin
M 268.18275              (2000.0)            P               Q
n   0.30245478     Peri.   80.46365     +0.90578843     +0.42185858
a   2.1980071      Node   254.57577     -0.40315654     +0.82910247
e   0.1506437      Incl.    2.36522     -0.13043055     +0.36691203
P   3.26           H    8.75          G   0.15           U   0
From 719 observations at 63 oppositions, 1887-2002, mean residual 0".55.
An explanation of the orbital elements is available.

These orbital elements are also available in forms suitable for loading into a number of popular planetarium-type software programs.


Ephemeris

The following ephemeris is at intervals of five days. A daily ephemeris covering the same time interval is also available.

Date    TT    R. A. (2000) Decl.     Delta      r     Elong.  Phase     V
 
2004 05 25    20 02.47   -19 08.3    1.236    2.000   125.3    24.4    11.9
2004 05 30    20 04.26   -18 52.8    1.187    1.993   129.6    23.1    11.7
2004 06 04    20 05.22   -18 39.2    1.141    1.985   134.1    21.5    11.6
2004 06 09    20 05.29   -18 27.8    1.097    1.978   138.9    19.7    11.4
2004 06 14    20 04.46   -18 18.7    1.058    1.971   143.8    17.7    11.3
2004 06 19    20 02.73   -18 12.0    1.022    1.964   148.9    15.5    11.1
2004 06 24    20 00.14   -18 07.7    0.991    1.957   154.2    13.0    11.0
2004 06 29    19 56.75   -18 05.6    0.965    1.950   159.7    10.4    10.8
2004 07 04    19 52.69   -18 05.6    0.943    1.944   165.3     7.6    10.6
2004 07 09    19 48.09   -18 07.3    0.927    1.938   171.0     4.7    10.4
2004 07 14    19 43.12   -18 10.4    0.916    1.932   175.9     2.1    10.2
2004 07 19    19 37.99   -18 14.5    0.911    1.926   175.3     2.5    10.2
2004 07 24    19 32.95   -18 19.1    0.912    1.920   170.1     5.2    10.4
2004 07 29    19 28.22   -18 24.0    0.918    1.915   164.4     8.2    10.5
2004 08 03    19 24.00   -18 28.7    0.929    1.910   158.7    11.1    10.7
2004 08 08    19 20.46   -18 33.2    0.945    1.905   153.1    13.9    10.8
2004 08 13    19 17.74   -18 37.2    0.965    1.900   147.7    16.5    11.0
2004 08 18    19 15.93   -18 40.5    0.990    1.896   142.5    19.0    11.1
2004 08 23    19 15.12   -18 43.0    1.019    1.892   137.5    21.2    11.2
2004 08 28    19 15.30   -18 44.5    1.051    1.888   132.8    23.1    11.3
2004 09 02    19 16.47   -18 44.9    1.086    1.885   128.2    24.9    11.5
2004 09 07    19 18.60   -18 44.0    1.124    1.882   123.9    26.4    11.6
2004 09 12    19 21.64   -18 41.6    1.164    1.879   119.8    27.7    11.7
2004 09 17    19 25.54   -18 37.5    1.206    1.876   115.8    28.8    11.8
2004 09 22    19 30.25   -18 31.6    1.250    1.874   112.1    29.8    11.9

Back to Bright Minor Planets

Astronomical Headlines Index


Valid HTML 4.01!